Miscellaneous Local Product
Issued by NWS Hastings, NE

Home | Current Version | Previous Version | Graphics & Text | Print | Product List | Glossary On
Versions: 1 2 3 4 5 6 7 8 9 10 11 12 13 14 15 16 17 18 19 20 21 22 23 24 25 26 27 28 29 30 31 32 33 34 35 36 37 38 39 40 41 42 43 44 45 46 47 48 49 50
000
AXUS43 KGID 291902
MISGRI

GID CWA HOURLY WEATHER ROUNDUP
NATIONAL WEATHER SERVICE HASTINGS NE
200 PM CDT SUN MAY 29 2016

NOTE: "FAIR" INDICATES FEW OR NO CLOUDS BELOW 12,000 FEET WITH NO
SIGNIFICANT WEATHER AND/OR OBSTRUCTIONS TO VISIBILITY.

...SOUTH CENTRAL NEBRASKA...

CITY           SKY/WX    TMP DP  RH WIND       PRES   REMARKS
GRAND ISLAND   SUNNY     80  53  39 VRB3      30.08F
HASTINGS       SUNNY     82  57  42 S9        30.07F
KEARNEY        SUNNY     81  54  39 SW8       30.08F
ORD            SUNNY     80  52  37 VRB3      30.06F
YORK           SUNNY     79  57  47 W6        30.08F
AURORA         SUNNY     80  52  38 SW6       30.08F
LEXINGTON      SUNNY     78  55  43 CALM      30.07F
HOLDREGE       SUNNY     79  55  43 SW6       30.08F
HEBRON         SUNNY     82  57  42 W8        30.08F

...NEBRASKA PANHANDLE...

CITY           SKY/WX    TMP DP  RH WIND       PRES   REMARKS
CHADRON        SUNNY     76  48  37 VRB3      30.05F
ALLIANCE       SUNNY     74  48  39 SW8       30.07F
SCOTTSBLUFF    SUNNY     78  41  26 W5        30.08F
SIDNEY         SUNNY     77  43  29 S8        30.11F

...WESTERN AND NORTH CENTRAL NEBRASKA...

CITY           SKY/WX    TMP DP  RH WIND       PRES   REMARKS
VALENTINE      MOSUNNY   74  48  39 SE5       30.08F
AINSWORTH      SUNNY     74  53  48 S8        30.10S
ONEILL         SUNNY     75  55  49 E5        30.08F
BROKEN BOW     SUNNY     78  57  48 S7        30.08F
IMPERIAL       SUNNY     78  53  41 MISG      30.07F
NORTH PLATTE   SUNNY     79  56  45 SE5       30.07F
MCCOOK         SUNNY     81  56  42 SW7       30.06F

...EASTERN NEBRASKA...

CITY           SKY/WX    TMP DP  RH WIND       PRES   REMARKS
NORFOLK        SUNNY     77  54  44 CALM      30.07F
SO SIOUX CITY  SUNNY     80  58  46 W9        30.05F
TEKAMAH          N/A    N/A N/A N/A MISG      30.06F
COLUMBUS       MOSUNNY   81  57  44 SW6       30.08F
ALBION         SUNNY     78  53  43 CALM      30.08S
OMAHA EPPLEY   MOSUNNY   82  58  43 W5        30.06F
MILLARD        SUNNY     81  59  47 CALM      30.06F
LINCOLN        SUNNY     84  56  38 W10       30.06F
NEBRASKA CITY  SUNNY     81  56  42 W7G16     30.07F
BEATRICE       SUNNY     82  59  45 SW12G18   30.07F
FALLS CITY     SUNNY     83  61  47 W15       30.07F

...NORTHERN KANSAS...

CITY           SKY/WX    TMP DP  RH WIND       PRES   REMARKS
GOODLAND       SUNNY     80  55  42 S14G26    30.08F
HILL CITY      MOSUNNY   86  54  33 S9        30.07F
NORTON         PTCLDY    84  48  28 S9        30.07F
PHILLIPSBURG   SUNNY     84  57  39 S7        30.06F
SMITH CENTER   SUNNY     82  61  47 S10       30.07F
BELOIT         SUNNY     72  52  49 S6        30.06F
HAYS           CLOUDY    82  61  47 S14       30.07F
RUSSELL        MOSUNNY   83  61  47 S13G20    30.07F
CONCORDIA      SUNNY     83  60  45 W6        30.08F
SALINA         CLOUDY    88  55  32 VRB5      30.07F
TOPEKA         SUNNY     86  55  34 W7        30.09S



USA.gov is the U.S. government's official web portal to all federal, state and local government web resources and services.